Flag for U.S.A. Weather past 2 weeks in Rancho Cucamonga, California, U.S.A.

Now
67 °F

Clear.


Feels Like: 67 °F
Forecast: 62 / 92 °F
Wind: 6 mph from West

Location: Ontario International Airport

Current Time: Sep 2, 2014 at 2:15:13 AM

Latest Report: Sep 2, 2014 at 1:53 AM


Visibility: 10 mi

Pressure: 29.79 "Hg

Humidity: 81%

Dew point: 61 °F

Location of Rancho CucamongaLocation

Historic Weather in Rancho Cucamonga — Graph

°F

Rancho Cucamonga temperature yesterday

Maximum temperature yesterday: 95 °F (at 3:53 PM)
Minimum temperature yesterday: 66 °F (at 6:53 AM)
Average temperature yesterday: 79 °F

Past Weeks' High & Low Weather Summary

 TemperatureHumidityPressure
High99 °F (Aug 28, 1:53 PM)90% (Aug 23, 4:53 AM)30.01 "Hg (Aug 23, 4:53 AM)
Low62 °F (Aug 24, 6:00 AM)15% (Aug 29, 2:53 PM)29.69 "Hg (Aug 30, 4:53 PM)
Average78 °F51%29.85 "Hg
* Reported Aug 18 12:53 AM — Sep 2 12:53 AM, Rancho Cucamonga, Weather by CustomWeather, © 2014

Note: Actual official high and low records may vary slightly from our data, if they occured in-between our weather recording intervals... More about our weather records

Advertising

Rancho Cucamonga weather history for previous 24 hours

 ConditionsComfort  
Time TempWeatherWind HumidityBarometerVisibility
12:53 AM
Sep 2
70 °FClear.5 mph73%29.78 "Hg10 mi
11:53 PM
Sep 1
70 °FClear.5 mph73%29.78 "Hg10 mi
10:53 PM72 °FClear.7 mph68%29.79 "Hg10 mi
9:53 PM74 °FClear.7 mph64%29.79 "Hg10 mi
8:53 PM77 °FClear.7 mph56%29.78 "Hg10 mi
7:53 PM81 °FSunny.7 mph45%29.75 "Hg10 mi
6:53 PM86 °FPassing clouds.12 mph36%29.72 "Hg10 mi
5:53 PM90 °FPassing clouds.14 mph32%29.71 "Hg10 mi
4:53 PM92 °FPassing clouds.14 mph31%29.71 "Hg10 mi
3:53 PM95 °FPassing clouds.13 mph24%29.71 "Hg10 mi
2:53 PM94 °FPassing clouds.9 mph22%29.72 "Hg10 mi
1:53 PM94 °FPassing clouds.7 mph17%29.74 "Hg10 mi
12:53 PM91 °FPassing clouds.8 mph23%29.76 "Hg10 mi
11:53 AM88 °FPassing clouds.6 mph26%29.78 "Hg10 mi
10:53 AM84 °FPassing clouds.6 mph37%29.80 "Hg10 mi
9:53 AM77 °FPassing clouds.No wind58%29.80 "Hg7 mi
8:53 AM72 °FHaze.No wind76%29.80 "Hg5 mi
7:53 AM69 °FHaze.No wind84%29.80 "Hg4 mi
6:53 AM66 °FFog.No wind90%29.80 "Hg4 mi
5:53 AM67 °FFog.3 mph87%29.78 "Hg6 mi
4:53 AM67 °FFog.No wind90%29.77 "Hg5 mi
3:53 AM68 °FFog.No wind87%29.76 "Hg6 mi
2:53 AM70 °FClear.3 mph84%29.77 "Hg9 mi
Weather by CustomWeather, © 2014

See weather overviewHow to use our weather pages